Other Public Products
Issued by NWS Grand Forks, ND

Home | Current Version | Previous Version | Text Only | Print | Product List | Glossary Off
Versions: 1 2 3 4 5 6 7 8 9 10 11 12 13 14 15 16 17 18 19 20 21 22 23 24 25 26 27 28 29 30 31 32 33 34 35 36 37 38 39 40 41 42 43 44 45 46 47 48 49 50

000
FPUS83 KFGF 180531
OPUFGF
PRAIRIE TO PINES WEATHER ROUNDUP
NATIONAL WEATHER SERVICE EASTERN NORTH DAKOTA/GRAND FORKS ND
1100 PM CST SUN DEC 17 2017

 **SATELLITE DATA USED TO AUGMENT SKY COVER AT AUTOMATED STATIONS**
 *****  WEATHER ACROSS EASTERN NORTH DAKOTA  *****

CITY           SKY/WX    TMP DP  RH WIND       PRES   REMARKS
GRAND FORKS    CLOUDY    26  24  92 S16       29.73F WCI  14
GRND FORKS AFB MOCLDY    29  23  79 S12       29.71F WCI  19
GRND FORKS NWS   N/A     27 N/A N/A S10         N/A  WCI  17
BUXTON           N/A     27  27  99 S8          N/A  WCI  19
DEVILS LAKE    CLOUDY    33  25  72 SW16      29.66F WCI  23
FARGO          CLOUDY    30  29  96 S13       29.81F FOG     WCI  20
WAHPETON ARPT    N/A     28  27  93 S9        29.84F WCI  20
$$

 *****  WEATHER ACROSS CENTRAL AND WESTERN NORTH DAKOTA  *****

CITY           SKY/WX    TMP DP  RH WIND       PRES   REMARKS
JAMESTOWN      FAIR      34  27  75 SW12      29.72F
BISMARCK       CLOUDY    36  25  64 W6        29.74F
MINOT          FAIR      34  21  59 SW8       29.64S
MINOT AFB      FAIR      30  21  68 SW8       29.62F WCI  23
GARRISON         N/A     31  24  75 W8        29.67F WCI  23
WILLISTON      CLOUDY    33  22  63 S5        29.66F
DICKINSON      FAIR      34  20  56 W16       29.69F WCI  24
HETTINGER      MOCLDY    32  20  61 W12       29.77S WCI  23
$$

 *****  OTHER OBSERVATIONS NORTHEAST NORTH DAKOTA  *****

CITY           SKY/WX    TMP DP  RH WIND       PRES   REMARKS
WALHALLA       FAIR      36  25  64 SW13G23   29.61F
LANGDON        NOT AVBL
CAVALIER       FAIR      34  25  69 SW13      29.64F WCI  25
GRAFTON        NOT AVBL
CANDO          CLOUDY    30  28  93 SW10      29.66S WCI  21
FORT TOTTEN      N/A     33  24  68 SW10      29.95S WCI  25
ROLLA          CLOUDY    30  27  86 SW10      29.62R WCI  21
RUGBY          NOT AVBL
 ***** THE ABOVE OBSERVATIONS ARE NON NWS ARE NOT QUALITY
        CONTROLLED AND MAY MIS-REPORT RAIN FOR SNOW...
$$

 *****  OTHER OBSERVATIONS SOUTHEAST NORTH DAKOTA *****

CITY           SKY/WX    TMP DP  RH WIND       PRES   REMARKS
COOPERSTOWN    FAIR      32  27  80 SW15      29.71F WCI  22
VALLEY CITY    NOT AVBL
OAKES            N/A     28  28 100 S12       29.79F WCI  18
GWINNER          N/A     32  30  93 SW10      29.79F WCI  24
SHEYENNE NWR     N/A     28  28 100 S7        29.95S WCI  21
BUFFALO          N/A     31  25  80 E10         N/A  WCI  22
WYNDMERE       NOT AVBL
 ***** THE ABOVE OBSERVATIONS ARE NON NWS ARE NOT QUALITY
       CONTROLLED AND MAY MIS-REPORT RAIN FOR SNOW...
$$

  *****  WEATHER ACROSS NORTHERN MINNESOTA  *****

CITY           SKY/WX    TMP DP  RH WIND       PRES   REMARKS
FLAG ISLAND    FAIR      12  10  92 S7        29.69F WCI   2
WARROAD        FAIR      23  19  86 SW7       29.71F WCI  15
ROSEAU         FAIR      25  21  86 S13       29.70F WCI  13
HALLOCK        MOCLDY    27  25  93 S18       29.67F WCI  13
THF RVR FALLS  CLOUDY    28  27  96 S17       29.76F FOG     WCI  16
HALSTAD        NOT AVBL
FOSSTON        CLOUDY    25  23  93 S10       29.79F FOG     WCI  15
BAUDETTE       MOCLDY    22  20  92 S9        29.74F WCI  12
WASKISH        CLOUDY    25  23  93 S7        29.78S WCI  17
CROOKSTON      CLOUDY    30  30 100 S17       29.76F FOG     WCI  18
$$
  *****  WEATHER ACROSS CENTRAL AND WEST MINNESOTA  *****

CITY           SKY/WX    TMP DP  RH WIND       PRES   REMARKS
BEMIDJI        CLOUDY    25  24  96 S7        29.80S WCI  17
PARK RAPIDS    CLOUDY    26  24  92 S8        29.82F FOG     WCI  18
WADENA         MOCLDY    23  23 100 S5        29.84F FOG     WCI  17
DETROIT LAKES  CLOUDY    30  28  93 S8        29.83S FOG     WCI  23
MOORHEAD       MOCLDY    27  25  93 S14       29.81F FOG     WCI  15
FERGUS FALLS   CLOUDY    27  27 100 S7        29.88S WCI  19
ELBOW LAKE     CLOUDY    27  26  96 S12       29.86F FOG     WCI  17
MORRIS MN      CLOUDY    28  27  93 SE8       29.86F FOG     WCI  20
STAPLES        CLOUDY    23  23 100 S7        29.86F FOG     WCI  15
WHEATON        CLOUDY    30  28  93 S8        29.87F WCI  23
$$
  *****  WEATHER ELSEWHERE ACROSS MINNESOTA  *****

CITY           SKY/WX    TMP DP  RH WIND       PRES   REMARKS
DULUTH         CLOUDY    23  21  92 SW10      29.87F WCI  12
INTRNTL FALLS  CLOUDY    24  22  91 S9        29.78S FOG     WCI  14
ELY            CLOUDY    21  21 100 S7        29.82F WCI  13
CLOQUET        CLOUDY    25  19  80 S6        29.88F WCI  18
BRAINERD       CLOUDY    24  19  81 S7        29.88F WCI  16
HIBBING        CLOUDY    24  23  96 S7        29.85F WCI  16
ALEXANDRIA     CLOUDY    28  25  88 S8        29.87F FOG     WCI  20
SAINT CLOUD    CLOUDY    24  21  88 S5        29.91F WCI  18
MINNEAPOLIS    CLOUDY    27  25  92 SW5       29.96S WCI  22
$$

  *****  WEATHER ACROSS SOUTH DAKOTA  *****

CITY           SKY/WX    TMP DP  RH WIND       PRES   REMARKS
SIOUX FALLS    CLOUDY    33  29  85 SW3       29.92S
BROOKINGS      CLOUDY    33  26  75 S8        29.89S
WATERTOWN      CLOUDY    32  30  92 S9        29.84F WCI  24
HURON          MOCLDY    35  29  78 MISG      29.87F
SISSETON         N/A     38  32  79 SW12      29.83F
ABERDEEN       FAIR      31  29  92 S8        29.83F WCI  23
MITCHELL       CLOUDY    36  28  73 S10       29.91S
PIERRE         CLOUDY    31  28  89 SW7       29.82F WCI  24
MOBRIDGE       MOCLDY    32  27  81 S5        29.76F
RAPID CITY     FAIR      24  15  68 W8        29.86S WCI  15
$$

  *****  SOME WEATHER IN NEARBY STATES *****

CITY           SKY/WX    TMP DP  RH WIND       PRES   REMARKS
GLASGOW MT     FAIR      34  22  61 W8        29.67F
GREAT FALLS MT FAIR      37  22  54 SW33G48   29.74F
CHEYENNE WY    FAIR      26  22  84 SW13      29.91F WCI  15
SCOTTSBLUFF NE FAIR      22  12  65 N6        29.93R WCI  14
OMAHA NE       MOCLDY    28  23  81 SE3       30.01F
DES MOINES IA  FAIR      30  26  85 W6        30.00R WCI  24
DAVENPORT IA   FOG       38  37  97 W3        29.99S VSB 3/4
CHICAGO IL     CLOUDY    42  31  64 SW6       29.98S
EAU CLAIRE WI  CLOUDY    27  25  92 S8        29.94F FOG     WCI  19
LA CROSSE WI   CLOUDY    32  28  85 SW6       29.97S
$$

  *****  SOME NATIONAL WEATHER *****

CITY           SKY/WX    TMP DP  RH WIND       PRES   REMARKS
LA GUARDIA NY  CLOUDY    35  24  64 E7        30.20F
RALEIGH NC     CLOUDY    45  42  89 CALM      30.19F
ATLANTA GA     CLOUDY    47  46  97 E3        30.17S
NEW ORLEANS LA CLOUDY    65  65 100 S7        30.13F
OKLAHOMA CITY  FOG       39  39 100 S5        30.10R VSB 1/8
ALBUQUERQUE NM FAIR      36  29  75 SE6       30.11R
SALT LAKE CITY FAIR      29  23  78 W3        30.27R
LOS ANGELES CA FAIR      63  21  20 N8        30.03R
BOISE ID       CLOUDY    34  23  64 SE5       30.23F
SEATTLE WA     CLOUDY    50  43  77 S21G26    29.99F
$$

*** WEATHER ACROSS MANITOBA...SASKATCHEWAN AND ONTARIO ***
                ***ONTARIO***

CITY           SKY/WX    TMP DP  RH WIND       PRES   REMARKS
GERALDTON      FLURRIES  25  23  93 SW13      29.76F WCI  13
THUNDER BAY    CLOUDY    27  21  80 W7        29.86F WCI  19
SIOUX LOOKOUT  CLOUDY    25  23  93 S9        29.71F WCI  15
TORONTO        CLOUDY    19  14  79 N6        30.07F WCI  11
BIG TROUT LK   CLOUDY    19  19 100 SW8       29.50F WCI   9
PICKLE LAKE    NOT AVBL
DRYDEN         PTCLDY    21  19  93 S9        29.71F WCI  11
KENORA         PTCLDY    18  16  93 S12       29.67F WCI   5
$$
                *** MANITOBA***

CITY           SKY/WX    TMP DP  RH WIND       PRES   REMARKS
BRANDON        MOCLDY    28  23  80 SW15      29.54F WCI  17
DAUPHIN        MOCLDY    34  27  75 W22G31    29.43R WCI  22
ISLAND LAKE    NOT AVBL
PILOT MOUND      N/A     30  25  80 SW15        N/A  WCI  19
THE PAS        PTCLDY    28  21  74 W14G22    29.20F WCI  17
THOMPSON       LGT SNOW  23  23 100 S5        29.12F WCI  17
WINNIPEG       CLOUDY    23  19  86 S21       29.60F WCI   8
LYNN LAKE      FLURRIES  23  23 100 SW6       29.01F WCI  16
CHURCHILL      LGT SNOW   5   1  85 SE10      29.31F WCI -10
GILLAM         CLOUDY    16  14  93 SE6       29.24F WCI   7
$$
                ***SASKATCHEWAN***

CITY           SKY/WX    TMP DP  RH WIND       PRES   REMARKS
ESTEVAN        CLOUDY    30  25  80 SW10      29.59F WCI  21
KINDERSLEY     CLOUDY    30  21  69 W14G20    29.54F WCI  20
LLOYDMINSTER   PTCLDY    27  19  74 W14       29.44F WCI  15
PRINCE ALBERT  CLEAR     32  23  69 W17G23    29.37S WCI  21
REGINA         MOCLDY    32  27  80 W14       29.52F WCI  22
YORKTON        CLEAR     30  25  80 SW14      29.43S W



USA.gov is the U.S. government's official web portal to all federal, state and local government web resources and services.